RH
57 61 68 64 57 57 59 61 64 67 70 73 76 78 80 77 73 72 71 70 67 65 62 57 57 62 67 64 61 59 61 66 65 66 70 75 77 80 86 83 84 83 72 70 70 68 69 65 67 71 71 68 65 65 66 63 59 58 57 57 55 55 58 61 62 56 53 53 54 53 52 50 49 48 47 47 47 47 46 46 46 46 46 46 44 40 38 41 47 50 52 55 56 58 60 61 60
60 65 71 67 59 60 60 59 64 68 70 76 78 76 78 78 74 72 71 71 65 62 61 57 58 62 66 63 59 59 60 63 64 65 67 70 73 77 84 81 81 82 69 62 63 64 65 65 65 64 62 61 62 66 67 65 61 57 56 55 55 57 60 62 62 56 51 51 52 54 54 54 53 52 51 49 48 47 46 44 44 45 45 44 41 40 43 47 51 53 55 57 60 62 63 64 63
60 68 70 65 59 60 64 63 64 65 71 80 80 76 75 75 75 73 74 74 63 57 58 57 58 58 60 56 55 57 58 60 64 68 64 66 70 71 76 75 76 78 69 59 53 58 65 64 58 54 55 57 59 62 62 61 58 54 52 51 54 57 60 61 58 54 50 48 48 48 49 51 50 50 50 48 46 44 43 42 43 44 44 44 45 48 51 53 56 58 59 60 62 64 64 64 62
55 63 64 61 57 59 62 63 63 60 68 78 78 75 72 69 70 73 74 75 68 59 54 53 55 57 58 51 50 55 57 60 66 70 63 66 70 67 69 68 72 74 71 63 51 55 64 58 51 51 53 52 52 53 53 51 48 45 45 47 51 56 59 58 54 51 48 46 46 45 46 46 46 47 46 44 43 43 43 44 46 47 49 51 54 57 57 58 59 60 60 61 63 65 65 61 56
52 56 56 55 53 55 54 57 59 54 59 67 73 73 64 58 60 65 69 70 70 65 55 54 55 54 56 52 52 55 59 61 64 68 63 66 68 64 65 65 68 69 69 67 58 56 59 55 51 53 53 51 49 46 46 45 42 41 42 44 48 51 52 51 48 47 46 46 46 45 45 45 45 45 43 43 45 47 49 50 52 53 55 57 59 61 62 61 60 60 60 60 62 64 63 57 53
50 51 50 49 48 50 46 48 52 50 53 52 58 69 62 54 53 53 56 60 68 73 62 59 60 51 51 53 54 57 62 65 64 67 63 63 65 62 63 64 64 65 65 63 61 58 59 59 56 57 57 54 51 47 46 45 45 44 43 44 44 44 44 45 45 44 45 46 46 46 46 46 46 45 45 47 49 51 52 54 55 57 59 61 62 63 64 63 62 62 61 62 62 66 61 53 56
46 47 47 46 46 46 41 40 44 48 55 48 44 57 60 55 53 49 48 49 62 78 70 65 63 47 50 53 54 59 63 68 66 64 62 60 61 61 62 63 64 64 63 58 56 55 59 62 60 61 60 56 53 48 46 45 47 48 46 45 42 43 45 45 44 45 46 46 46 45 46 46 46 46 47 49 51 53 54 56 58 60 62 63 64 65 65 65 64 62 62 62 63 67 62 56 60
46 46 45 46 44 44 43 42 44 45 51 51 47 52 57 55 55 52 46 42 53 72 71 69 61 45 50 55 54 58 61 67 65 60 59 58 59 61 62 64 66 65 62 56 53 54 57 60 62 62 60 58 54 50 46 44 44 46 47 47 43 45 48 47 47 46 47 47 46 45 46 47 48 49 50 53 54 56 58 59 61 63 64 65 66 66 66 64 61 59 59 60 61 64 62 61 64
45 44 42 41 41 44 46 44 45 44 43 46 45 46 48 51 56 51 40 42 50 60 66 64 55 44 49 54 53 55 59 64 63 58 58 59 62 62 64 66 68 68 64 58 54 55 58 61 63 61 61 60 57 52 46 41 42 45 48 49 46 47 50 51 49 48 47 47 47 48 50 51 53 54 55 57 57 59 60 61 63 64 64 64 65 65 63 61 58 57 58 58 60 64 65 65 64
43 44 42 38 40 44 46 44 44 45 44 45 45 41 38 39 46 42 34 42 49 52 59 56 47 41 44 52 53 53 56 60 59 56 57 59 61 60 62 66 68 67 61 57 56 56 56 59 59 58 58 57 55 50 46 43 43 45 48 49 49 50 52 51 49 48 49 49 52 54 56 57 57 57 58 59 60 62 63 64 64 64 64 64 64 62 61 62 61 57 57 59 60 65 69 70 67
43 44 41 38 41 43 44 45 45 48 48 49 49 44 40 34 31 31 31 40 49 51 52 50 46 40 41 48 51 53 54 55 57 55 56 57 57 56 56 59 64 63 56 53 54 54 52 53 54 52 50 48 46 43 43 43 42 45 47 49 52 52 52 51 52 54 55 56 58 59 59 58 58 59 60 62 64 65 66 67 65 65 65 64 63 63 65 66 64 58 56 59 60 62 65 69 71
39 39 39 38 41 42 42 45 47 50 52 50 47 44 41 36 24 22 28 37 47 49 47 49 51 42 38 43 46 52 53 54 57 55 54 54 54 54 53 53 55 57 55 52 50 52 53 52 52 49 47 46 44 41 41 42 42 45 50 53 53 51 52 53 55 57 58 58 58 58 58 58 59 61 62 64 67 66 64 64 66 67 64 63 64 68 71 70 67 63 59 59 60 60 60 63 69
36 37 38 38 39 40 42 45 48 49 53 51 46 43 39 34 23 17 22 31 42 49 48 52 52 42 38 41 44 49 50 52 56 57 56 53 52 51 52 51 49 52 53 52 50 50 52 52 51 49 48 47 47 44 42 43 44 46 52 55 52 49 50 52 53 54 55 55 56 57 58 60 62 62 63 66 65 63 59 60 64 63 60 61 67 76 78 75 73 70 66 63 61 62 61 60 67
38 40 38 37 37 39 41 45 47 46 49 51 47 43 35 28 21 17 21 23 33 44 46 51 52 44 40 39 41 45 46 49 53 57 58 57 55 51 51 51 49 51 50 50 50 50 50 50 51 49 48 48 48 47 44 45 46 47 49 50 50 50 52 52 53 54 55 56 57 58 60 60 61 62 66 66 62 61 59 57 59 58 61 68 76 84 83 80 79 78 76 73 69 68 67 64 67
40 42 41 38 36 37 40 41 42 42 44 47 47 44 36 30 26 25 27 23 23 33 38 45 53 50 44 39 36 40 42 45 50 54 57 57 57 55 54 54 53 52 51 50 50 51 50 49 50 49 48 48 48 48 47 45 45 47 49 52 52 52 54 54 54 55 55 56 57 58 58 59 62 66 67 64 61 63 64 61 60 61 68 78 85 86 81 79 78 79 79 77 75 73 74 70 69
41 42 44 40 36 36 38 39 41 41 41 45 46 45 37 30 31 30 29 28 22 26 34 38 49 52 46 43 37 37 42 44 48 50 53 53 54 55 54 54 55 54 51 51 51 51 51 51 50 50 49 50 51 50 49 46 44 45 50 55 55 53 54 54 54 54 54 55 56 57 58 62 65 64 60 59 60 64 69 66 63 65 71 79 84 82 76 73 73 76 77 77 76 72 73 71 74
41 41 44 42 38 37 37 39 40 39 40 44 44 40 34 25 27 28 24 30 25 21 32 33 39 44 43 48 43 40 43 45 48 46 45 47 47 48 48 49 50 51 49 49 51 51 51 52 51 51 49 51 53 51 50 47 46 46 47 52 53 51 52 54 55 54 55 56 57 57 60 64 62 59 56 58 62 67 71 70 70 71 74 79 81 79 72 67 67 71 75 77 74 67 67 68 75
40 40 43 43 39 37 38 37 37 38 38 41 40 36 37 28 22 21 17 26 25 18 28 32 34 36 40 49 45 41 42 43 47 44 40 41 41 40 40 42 44 47 47 46 48 49 52 53 52 50 49 52 52 49 48 47 49 48 46 51 52 48 49 55 57 53 55 58 59 60 63 64 60 60 61 61 64 68 68 71 78 79 80 85 84 80 72 64 63 68 74 73 68 65 67 68 71
40 39 40 42 40 38 38 38 38 38 36 40 41 39 42 35 23 19 16 20 21 17 21 26 29 28 32 42 41 39 39 40 44 42 39 38 38 39 38 39 40 44 44 43 45 48 52 53 51 49 53 56 52 47 46 50 53 48 44 47 46 44 47 53 54 51 54 58 60 63 64 63 61 63 64 63 65 67 69 73 80 83 85 88 86 81 74 66 62 64 71 69 65 66 67 68 68
41 41 40 40 39 39 39 40 39 37 37 40 42 43 44 38 28 23 20 21 21 19 20 20 20 19 21 31 34 34 34 37 40 41 39 36 38 40 40 39 38 40 43 44 44 46 51 53 51 51 59 59 52 47 46 54 59 51 45 44 42 42 44 46 49 50 56 60 62 65 66 65 64 64 64 65 66 68 71 75 79 84 87 87 84 80 74 70 66 62 65 65 63 64 63 64 64
42 41 39 38 38 40 40 40 39 37 38 40 40 43 44 38 32 25 19 20 19 16 20 19 16 15 16 21 26 28 30 32 34 36 37 36 37 39 40 42 42 43 44 44 44 46 49 50 49 53 61 60 55 50 46 56 64 57 48 44 45 45 44 45 50 54 58 61 63 66 66 65 64 63 64 65 65 65 69 74 79 83 85 83 81 77 71 70 68 64 63 62 62 62 62 62 62
42 40 38 39 38 39 41 41 41 39 40 42 40 40 42 37 33 29 21 19 16 13 14 15 14 15 17 18 19 22 24 26 27 28 32 36 37 39 43 46 46 45 44 45 44 46 49 48 47 51 58 59 57 52 47 55 67 68 56 47 49 52 53 55 56 58 58 61 65 68 68 67 65 62 63 64 61 62 67 73 77 78 77 77 77 75 72 71 70 68 66 65 65 63 62 63 64
39 38 37 35 33 34 39 41 41 41 42 41 39 40 40 37 36 37 33 23 16 14 12 13 13 14 18 20 19 20 20 22 23 23 28 35 39 42 45 46 46 45 48 49 48 47 48 49 47 50 58 58 56 55 50 53 65 72 63 50 51 54 59 63 61 62 65 68 70 70 69 68 65 62 61 62 60 61 65 69 71 70 68 67 69 71 71 69 68 66 65 64 63 61 60 61 63
35 34 31 27 24 28 35 40 42 42 42 38 40 42 38 37 37 38 38 27 18 16 12 13 14 14 19 20 21 23 22 21 23 25 28 34 41 45 45 44 47 49 50 51 51 49 45 47 47 47 58 61 59 62 57 52 56 61 58 53 56 57 59 63 64 67 71 74 73 71 70 67 65 63 61 60 59 59 63 67 67 65 63 61 61 63 63 62 62 63 64 64 63 63 61 61 62
32 30 25 22 22 26 34 40 42 43 42 41 43 41 38 41 38 34 38 33 30 24 13 13 14 15 18 17 19 22 23 24 23 26 30 35 39 43 45 45 46 46 46 46 48 49 43 44 48 50 58 59 57 64 61 55 51 49 54 57 60 62 63 64 64 68 73 75 74 71 68 67 65 63 61 60 61 63 66 67 65 61 60 60 60 60 60 61 63 65 67 67 65 63 61 58 58
27 24 21 21 22 27 35 40 43 44 44 42 44 42 41 46 37 31 37 37 41 34 18 15 15 15 16 14 16 18 20 23 23 25 29 33 34 36 39 41 42 41 44 44 45 50 45 40 47 55 62 56 48 54 57 57 53 49 57 61 60 65 69 70 69 73 78 79 78 73 71 72 70 67 66 65 68 71 71 67 62 59 58 59 60 61 64 65 66 68 67 64 61 59 59 56 52
25 21 20 23 24 28 36 40 43 44 44 43 44 42 43 48 36 26 28 28 39 40 26 18 17 17 17 14 13 15 17 20 23 25 25 26 27 29 31 32 36 39 39 40 42 47 45 41 43 49 57 53 47 52 54 56 56 50 53 58 64 70 70 68 66 68 69 68 71 73 73 73 71 70 69 67 68 68 67 65 62 59 57 58 62 64 66 67 66 66 63 60 56 51 48 46 44
25 20 22 25 25 30 36 40 43 44 45 45 44 43 45 47 35 31 33 26 29 37 33 22 17 18 19 17 13 12 15 18 20 22 23 25 25 26 26 27 34 35 33 37 41 40 40 42 42 43 50 51 51 57 56 58 61 56 52 57 67 71 65 62 62 63 64 63 68 72 70 69 69 70 68 65 63 63 63 63 62 59 57 60 65 65 63 63 64 64 63 58 46 32 26 27 27
22 19 24 27 27 32 37 40 43 44 45 46 47 47 43 36 29 32 38 35 30 30 34 28 18 17 20 19 14 11 13 16 18 19 24 28 29 29 27 28 33 34 35 38 39 37 40 44 44 45 48 50 54 59 61 60 57 53 52 56 62 64 61 62 66 69 69 66 67 71 69 68 68 66 65 64 62 61 60 59 59 58 59 66 69 62 55 54 56 55 50 37 23 15 15 17 18
19 21 26 28 30 35 38 42 44 45 47 46 48 46 32 24 27 30 31 38 37 27 28 27 20 16 18 21 16 11 12 15 18 20 23 25 26 29 29 28 32 35 38 37 37 40 45 47 47 46 47 51 56 59 61 57 46 41 42 46 51 55 57 62 67 66 66 65 65 67 68 65 63 61 62 63 60 58 56 55 57 59 63 72 70 54 43 42 41 39 28 13 11 14 16 21 26
20 25 29 29 33 37 39 44 45 46 48 46 48 43 27 24 29 29 28 35 35 24 21 21 18 16 17 21 20 14 13 16 19 20 22 23 23 27 29 28 30 34 36 37 40 44 45 46 47 47 48 52 58 59 57 50 41 34 33 36 39 45 55 64 65 63 64 67 68 68 65 61 58 57 57 56 55 52 52 54 57 61 67 75 69 49 37 32 28 24 14 6 13 19 21 30 40
26 28 31 32 35 39 41 44 45 46 48 46 49 43 31 31 31 26 26 29 27 20 18 18 17 16 16 19 21 18 16 16 18 20 20 21 22 25 28 30 32 35 37 39 41 42 41 41 45 49 48 47 49 51 47 40 35 33 33 33 34 41 56 65 62 62 66 65 67 67 62 59 58 58 58 56 56 55 57 61 64 70 76 77 66 47 32 22 16 12 5 5 15 22 24 31 39
33 30 31 34 37 43 45 45 44 46 47 44 45 38 31 34 32 26 22 20 20 18 19 20 18 17 15 17 19 19 18 18 19 20 19 20 21 23 26 29 34 36 37 36 36 37 38 37 40 43 41 38 36 36 36 36 34 34 33 33 36 41 52 58 51 53 62 60 57 58 59 60 61 64 67 66 64 66 71 72 73 81 84 80 63 39 22 12 7 4 1 6 15 24 27 25 32
37 33 32 35 39 44 46 46 46 48 49 42 35 31 32 37 34 26 18 14 15 15 18 21 20 19 16 18 20 19 19 19 19 20 19 20 21 23 24 26 29 31 31 30 30 34 36 35 35 35 33 30 28 31 36 38 36 35 38 43 45 39 44 51 44 46 59 58 53 55 62 68 68 70 72 70 68 74 82 79 79 87 89 78 52 23 9 5 3 1 1 6 14 25 28 22 30
35 34 33 36 40 44 44 42 42 45 47 40 32 29 33 39 36 27 18 15 14 12 14 17 19 19 17 19 20 19 18 16 18 21 22 22 23 24 23 25 27 28 28 27 27 31 33 33 32 32 31 27 28 36 41 39 37 39 44 48 44 35 38 45 44 51 64 67 64 62 67 72 71 72 74 74 71 76 84 85 85 88 81 60 29 8 2 1 1 1 2 6 14 25 26 19 28
32 31 32 36 40 42 42 40 38 38 41 36 30 30 32 35 35 28 21 18 15 12 13 15 17 19 18 19 19 19 18 17 21 23 22 22 23 24 23 25 27 27 26 23 23 27 30 33 34 34 32 30 34 41 40 37 38 43 46 42 37 35 36 35 35 47 59 61 59 55 56 62 65 69 75 79 79 78 80 78 73 65 49 26 7 1 1 0 1 2 2 3 9 21 24 17 21
32 31 34 37 39 41 43 46 43 37 35 33 29 31 33 34 34 31 26 23 18 14 13 12 14 17 17 17 17 17 16 18 23 22 20 20 23 25 23 24 26 25 21 17 20 26 31 35 36 37 36 35 40 41 38 37 39 43 43 37 31 26 22 18 17 23 30 31 29 28 32 39 42 47 52 53 52 49 46 41 35 27 15 5 1 1 1 1 3 2 1 2 4 13 19 14 17
31 34 36 38 40 44 46 49 49 43 37 32 30 32 34 35 36 34 29 27 25 22 16 11 12 16 16 16 16 16 15 18 20 18 17 17 20 22 21 23 23 19 16 19 25 31 34 35 36 37 37 39 41 39 34 32 30 28 26 21 17 13 10 8 6 6 7 7 7 8 10 12 13 15 17 16 14 13 12 11 9 6 2 1 1 1 2 3 4 3 2 3 3 7 12 11 16
28 33 36 39 42 44 45 46 47 47 44 38 34 34 35 36 39 39 34 31 30 27 20 13 12 15 15 14 12 13 15 15 14 14 15 14 15 17 18 19 16 16 22 29 33 34 33 34 35 34 34 39 41 34 26 21 18 15 13 11 9 7 6 4 3 2 2 2 2 3 2 3 3 4 3 3 3 3 3 4 3 3 2 2 2 2 3 3 4 5 4 4 5 6 8 9 13
25 34 37 36 36 38 40 40 42 44 45 45 41 39 38 38 40 41 39 35 33 32 26 17 14 15 15 14 14 15 14 11 9 9 10 11 12 13 14 14 15 21 29 30 29 29 27 28 29 27 30 39 37 25 17 15 12 10 8 7 6 5 5 5 5 5 6 6 6 5 5 4 3 3 3 3 3 3 3 3 3 3 3 3 3 3 4 5 5 6 7 7 7 7 7 6 8
20 28 31 26 24 27 29 32 35 39 44 46 44 47 44 38 40 40 38 38 36 36 33 24 15 12 16 19 19 18 11 5 7 8 8 8 10 12 12 14 19 24 25 24 22 20 19 20 19 20 28 34 27 18 15 13 10 9 9 9 11 12 14 17 20 20 21 20 17 15 12 11 9 7 6 5 4 4 4 4 4 4 4 4 4 5 6 7 7 7 8 9 8 8 7 4 5
16 20 23 21 20 21 22 26 29 37 46 44 44 53 49 37 36 37 37 38 36 36 38 31 21 14 15 18 18 17 9 4 8 11 10 9 10 13 15 18 21 20 19 19 16 14 13 13 13 18 24 24 19 19 19 18 16 15 17 19 22 26 29 32 36 37 37 37 34 28 21 18 15 11 8 6 5 5 5 5 5 5 5 6 5 6 7 7 8 8 8 9 9 8 7 6 6
17 19 19 20 20 19 21 24 27 35 41 37 38 48 47 37 33 33 35 38 36 35 37 35 29 22 19 19 17 15 10 8 12 13 13 13 13 14 17 20 20 18 17 15 12 11 11 11 13 16 17 17 19 22 23 24 23 21 24 29 34 36 36 38 39 41 42 43 42 37 29 22 19 16 11 7 5 4 4 4 5 5 5 6 6 6 6 7 7 8 8 9 10 9 7 8 8
17 18 19 20 19 19 20 20 23 25 28 33 37 41 44 39 32 30 34 38 38 36 34 34 34 29 26 25 25 22 15 12 13 14 15 15 14 15 16 19 21 21 17 12 10 12 12 13 15 15 15 17 20 23 24 27 26 25 27 32 37 39 39 39 40 42 44 44 42 40 36 29 23 20 17 13 8 5 4 4 4 4 4 5 5 6 6 7 7 7 8 9 9 10 9 9 9
18 17 18 19 17 19 18 18 20 19 26 41 42 41 48 45 32 31 35 37 37 33 29 30 31 31 30 28 30 32 30 25 17 14 15 16 15 15 16 19 22 22 16 11 11 13 13 15 16 16 17 18 20 24 27 28 28 28 29 32 36 37 37 39 41 42 44 44 41 40 41 38 32 25 21 20 16 10 7 5 4 4 4 5 6 7 7 7 7 7 7 8 9 10 10 9 9
19 18 18 18 18 19 18 19 19 21 33 43 37 37 48 47 34 33 37 36 32 27 25 25 26 30 32 29 30 32 38 40 31 22 17 16 17 16 18 21 23 21 16 13 12 12 14 16 17 18 19 20 22 26 29 29 28 27 27 29 32 34 35 36 39 41 41 42 41 39 40 43 43 39 31 25 23 18 12 8 7 6 5 5 6 7 8 8 8 7 7 7 8 9 9 10 10
18 18 18 17 18 18 18 20 19 32 47 38 24 28 40 45 35 29 30 27 22 21 21 23 24 27 30 30 30 30 33 39 41 38 28 18 18 20 20 22 22 21 18 14 12 13 14 15 18 21 22 23 24 27 31 33 32 31 31 31 30 31 32 33 36 39 40 41 40 40 40 41 46 48 43 34 28 25 20 14 10 8 6 6 6 7 9 9 8 8 8 8 8 9 9 11 11
17 18 18 17 19 18 21 26 28 45 55 31 18 28 42 50 36 21 20 17 16 20 20 22 23 23 25 26 27 28 30 33 39 45 41 30 25 25 23 21 21 21 19 15 12 12 13 14 18 21 23 25 26 28 31 33 35 35 35 36 35 33 32 32 34 36 40 41 41 41 41 41 44 47 48 44 35 30 27 22 15 10 9 7 8 9 9 10 10 10 10 10 9 10 11 13 14
17 18 18 19 21 19 26 41 43 47 43 23 19 33 47 50 30 16 19 17 16 19 18 21 22 21 23 24 25 26 28 31 34 40 46 43 39 35 29 23 22 22 20 19 17 14 13 13 16 19 22 25 27 29 31 32 34 34 35 37 39 38 35 35 36 36 39 40 41 41 40 41 43 44 47 48 44 36 32 29 21 13 10 9 9 9 10 11 12 12 13 12 12 12 13 14 14
18 18 18 20 24 24 32 47 47 40 32 21 24 36 46 45 28 17 18 16 16 17 17 21 22 22 23 24 27 27 27 29 30 35 42 46 47 44 38 30 25 24 22 22 22 21 19 17 16 17 20 22 25 27 29 31 31 32 34 35 38 40 39 38 39 40 40 40 40 40 38 38 39 42 45 48 49 43 36 34 27 17 12 11 10 10 10 12 13 15 16 16 16 15 14 14 14
17 18 17 18 21 23 29 38 37 31 28 27 33 43 47 39 24 14 13 13 15 16 17 21 23 24 24 24 28 30 29 28 28 31 36 42 47 48 45 41 36 33 30 25 23 23 25 25 23 21 19 20 24 26 27 29 30 31 32 33 36 39 40 40 40 40 41 40 38 37 35 34 34 36 41 47 51 48 42 37 31 22 14 11 10 10 11 13 15 16 18 19 19 18 18 17 16
17 18 17 18 18 17 19 24 23 22 27 36 42 43 37 26 16 12 12 13 15 17 19 21 23 24 25 23 24 26 28 28 27 29 32 37 44 48 49 47 45 43 40 35 29 25 28 32 34 32 27 23 24 26 27 28 29 30 31 32 34 36 38 39 38 39 39 38 35 32 32 31 32 34 39 44 50 50 46 41 35 25 16 12 11 10 12 14 16 17 19 21 22 22 22 21 20
16 17 17 17 17 17 17 17 19 21 26 32 35 33 27 23 18 14 14 14 15 18 19 21 22 23 24 22 20 23 26 25 25 27 29 33 39 45 49 49 49 48 46 44 39 34 36 42 44 46 42 33 28 27 28 28 28 29 30 32 33 34 35 36 37 38 36 34 32 29 31 34 37 40 42 42 47 51 49 44 39 29 17 13 12 11 13 16 18 19 20 22 23 23 23 23 23
15 16 17 16 16 17 16 18 26 31 31 28 28 26 24 26 23 15 13 15 16 16 15 17 21 21 21 19 18 22 25 23 23 25 28 30 33 39 45 47 49 49 49 49 46 43 45 48 50 52 52 47 41 36 33 30 29 28 28 31 33 33 34 34 35 35 34 34 33 30 31 37 43 48 49 44 44 50 52 47 41 32 19 14 13 13 16 17 19 20 22 23 24 24 23 23 23
15 15 16 15 16 17 16 20 27 32 38 36 27 24 23 23 20 14 12 14 14 13 13 14 17 17 16 17 18 21 24 23 22 22 24 27 31 35 41 45 47 48 49 50 50 51 51 53 54 55 56 56 51 45 36 29 30 31 30 31 34 34 33 34 33 33 34 35 34 32 31 36 45 52 56 52 46 48 52 50 43 33 21 15 15 16 18 19 19 20 22 24 25 25 25 24 24
14 14 16 14 15 16 15 19 19 22 40 45 31 26 26 18 14 12 12 14 13 13 14 14 17 17 16 16 18 21 23 20 17 17 19 23 29 33 35 39 42 44 47 49 50 51 52 53 56 58 60 60 58 54 44 33 32 37 38 38 41 39 34 35 36 34 34 36 35 33 30 34 46 55 60 59 52 49 52 51 44 34 22 17 18 18 19 19 19 20 22 24 26 27 27 27 27
13 13 15 14 14 15 14 17 16 16 34 47 39 33 26 13 12 13 11 13 15 15 15 15 16 16 16 17 18 22 22 17 15 16 15 18 25 31 34 36 38 41 45 47 48 48 49 51 53 56 60 61 61 61 57 48 39 39 43 45 48 46 42 46 51 45 38 36 35 32 29 35 51 61 63 61 54 50 52 51 45 33 22 19 20 20 20 20 20 21 22 23 24 26 27 27 28
13 13 14 14 13 15 16 21 20 15 22 33 32 29 22 13 12 12 11 14 16 16 15 14 14 14 15 17 20 21 19 16 16 16 15 16 20 27 33 35 37 39 42 46 47 46 46 47 49 52 54 55 56 58 60 59 52 44 43 44 48 50 49 55 63 61 53 45 37 32 29 36 56 68 64 58 52 51 52 51 43 31 22 22 23 22 22 22 22 22 22 23 24 25 28 29 30
Wind_Speed
12 11 10 12 13 14 13 13 13 13 15 17 14 11 11 10 12 14 14 13 12 13 12 10 10 9 9 9 9 11 15 17 15 15 17 22 22 22 23 21 23 27 27 26 26 25 25 25 24 23 22 21 20 20 20 18 18 18 18 19 18 17 16 15 14 14 14 14 15 15 15 14 14 13 12 12 11 11 10 9 9 9 8 8 8 9 10 11 11 10 10 11 12 12 12 12 11
11 9 8 10 12 14 14 14 15 14 15 17 13 12 12 10 10 11 12 13 13 13 12 11 12 11 10 10 10 12 13 12 11 14 19 22 23 23 24 23 24 28 27 25 26 25 25 25 24 22 22 21 20 20 19 18 18 17 18 18 17 16 15 14 14 13 13 13 14 13 13 13 13 12 12 11 11 11 10 10 10 9 8 8 8 9 10 10 10 10 10 11 11 11 11 11 11
10 9 8 10 12 12 11 11 13 14 17 16 12 12 12 11 10 11 11 12 12 13 12 13 13 12 11 8 7 8 9 12 12 15 20 23 23 24 25 24 25 28 28 26 26 26 24 24 23 22 22 22 21 20 19 18 17 17 17 16 16 16 15 14 13 12 12 13 13 13 13 13 12 11 11 11 12 11 11 10 10 9 9 8 8 9 9 9 9 9 9 9 9 9 9 10 11
9 9 10 11 12 11 10 11 12 12 16 16 13 12 12 12 12 12 12 11 12 11 11 13 13 13 9 4 6 9 12 16 15 15 20 24 23 23 25 24 24 26 28 27 27 27 24 23 22 22 22 22 21 20 19 17 16 16 16 15 16 15 15 14 12 12 12 12 13 13 13 13 12 12 12 12 12 11 11 10 10 9 9 8 8 7 7 8 9 8 8 8 8 8 8 9 10
8 10 12 13 13 13 12 12 10 9 13 14 14 13 12 13 12 12 11 10 10 10 10 11 10 10 8 6 10 13 17 19 17 15 19 24 23 22 23 24 24 24 27 28 28 26 23 22 21 22 22 21 19 19 18 18 17 17 17 16 15 15 14 13 12 12 12 13 13 13 13 13 13 12 12 12 12 11 10 9 8 8 8 7 6 6 7 8 8 8 8 8 8 8 9 9 10
9 10 12 13 13 12 10 11 10 9 10 10 12 14 11 10 10 10 9 8 8 9 9 8 5 7 11 13 15 16 18 19 18 17 18 22 23 22 23 23 23 23 25 26 27 25 23 22 21 22 21 20 19 18 18 17 17 17 17 16 15 15 14 13 13 13 13 13 13 13 13 13 13 12 12 12 11 10 9 8 7 6 6 6 5 5 6 7 8 8 8 8 9 9 9 10 10
11 12 12 11 11 10 10 12 11 10 10 8 10 11 9 7 7 7 6 5 9 10 10 9 3 7 15 16 18 19 19 19 19 18 18 20 22 23 23 24 24 23 23 23 24 23 22 21 20 20 19 19 18 18 17 16 16 16 16 15 15 15 14 14 14 14 14 14 14 13 13 13 12 12 11 11 10 9 8 7 6 5 5 5 5 5 6 7 7 7 8 8 9 9 9 9 9
9 9 9 10 11 12 11 12 11 11 10 8 9 8 7 5 6 5 4 3 8 12 12 9 6 9 18 18 19 21 20 21 19 18 18 20 22 23 24 24 24 23 22 20 21 21 21 20 19 18 18 18 17 16 16 15 15 15 15 15 15 15 15 15 14 15 14 14 14 13 13 12 12 12 11 10 9 8 7 5 4 4 4 5 5 5 6 7 7 7 7 7 7 8 8 8 7
8 8 8 12 13 14 13 11 11 10 10 9 9 9 7 6 5 5 3 4 8 12 12 10 10 12 18 19 19 21 21 21 20 19 19 20 22 23 23 24 23 22 20 18 19 20 20 19 18 17 17 16 15 14 14 14 15 15 14 14 15 15 15 15 15 14 14 13 13 12 12 12 12 11 10 9 8 7 5 4 4 4 5 6 6 6 7 7 7 7 6 5 5 6 6 6 6
9 8 8 12 14 15 15 11 10 10 9 8 9 10 10 8 5 4 4 8 9 12 13 14 13 12 16 19 20 21 21 21 20 20 20 20 21 21 22 22 21 19 17 17 17 18 18 18 17 16 15 14 14 14 13 13 14 14 14 14 14 14 14 14 14 14 13 12 12 12 12 11 10 9 8 7 6 6 5 5 6 6 6 6 6 7 7 7 8 7 6 5 5 6 5 4 5
7 7 9 12 14 15 14 12 11 11 9 8 8 8 8 8 6 6 7 10 13 13 15 16 12 12 17 19 20 21 21 21 20 20 20 20 21 20 20 21 20 17 15 15 16 16 16 16 16 14 13 13 12 13 13 12 13 13 13 13 13 13 13 13 13 13 12 12 11 11 10 9 9 8 7 6 6 6 6 6 5 5 5 5 5 6 6 7 7 7 6 5 5 6 6 5 4
7 9 10 11 14 13 13 14 13 12 11 8 9 9 7 6 6 9 9 10 13 14 15 12 8 13 18 19 20 22 22 21 20 19 20 20 20 20 20 19 18 17 15 14 14 14 14 14 14 13 12 12 12 13 13 12 12 12 12 13 12 12 12 12 12 11 11 10 9 9 8 8 7 7 6 6 6 6 6 6 4 4 4 4 4 5 5 5 5 5 5 4 5 6 6 6 5
9 10 9 11 12 12 12 14 13 13 12 9 9 10 8 6 6 9 11 11 10 10 12 8 9 15 16 18 20 21 22 21 20 19 20 20 20 20 20 19 17 16 15 14 13 12 13 13 12 11 11 11 12 12 12 12 12 12 12 12 12 11 11 11 10 10 9 8 7 7 6 6 6 5 5 5 5 6 6 5 4 3 3 3 4 4 4 4 4 4 4 3 4 4 5 5 4
10 9 7 10 12 12 13 13 13 12 12 10 8 11 9 8 7 9 11 12 12 9 9 9 12 16 14 16 20 20 21 21 21 20 19 20 19 19 19 18 17 16 15 14 13 12 12 12 11 10 10 10 11 12 12 13 13 13 12 12 11 11 11 10 9 8 8 7 6 6 5 5 4 4 4 4 4 5 5 4 3 3 3 4 4 5 5 5 4 4 4 4 4 4 5 5 4
9 8 7 11 13 14 14 10 10 10 10 11 9 11 10 9 8 7 7 8 12 12 9 12 15 14 11 10 14 19 20 20 20 19 19 19 19 19 18 17 16 15 15 14 13 12 11 11 10 9 9 9 10 11 11 11 11 12 12 11 10 10 10 9 8 7 6 6 6 6 5 4 4 3 3 2 1 2 4 3 3 3 4 5 5 5 6 6 5 6 6 6 6 6 7 8 6
10 9 8 13 13 13 15 11 10 11 10 11 11 11 10 9 8 5 6 4 7 14 11 11 13 11 9 9 11 17 18 18 19 19 19 19 19 19 18 17 16 15 14 13 13 12 11 10 9 8 8 8 8 9 8 8 9 10 10 10 10 9 8 8 7 6 6 6 5 5 4 4 3 2 1 0 0 1 3 3 2 3 4 4 5 6 7 7 7 7 7 8 8 9 9 11 11
11 10 12 14 14 13 14 13 12 12 10 12 13 13 8 4 7 6 6 5 4 12 12 10 11 9 8 10 13 16 17 17 17 18 19 19 19 19 18 17 17 16 15 14 13 11 11 9 8 7 6 6 6 6 6 6 7 8 8 9 8 8 7 7 6 6 6 5 4 4 3 2 1 0 1 1 1 1 1 2 2 2 4 4 5 7 8 8 8 8 8 8 9 10 11 13 14
14 12 13 16 15 13 13 10 9 10 8 9 11 12 5 4 3 5 4 6 7 10 13 12 11 11 12 13 15 15 15 15 16 16 17 17 17 17 17 16 16 15 15 14 13 11 10 9 7 6 6 5 5 4 4 4 5 6 6 6 6 6 6 6 6 5 5 5 4 3 3 1 1 1 2 1 1 0 1 2 2 2 3 4 5 7 8 9 9 9 9 8 9 11 13 14 14
15 13 11 15 16 13 12 10 9 9 5 6 9 10 6 5 4 3 3 5 6 7 11 14 14 13 13 14 15 14 14 14 14 15 15 14 14 14 14 14 14 14 13 12 11 11 10 9 8 7 6 6 5 4 4 3 3 4 4 5 5 5 5 5 5 5 5 4 3 3 2 2 2 2 2 1 1 1 2 3 3 3 4 5 5 6 7 8 8 8 8 8 9 11 13 13 13
15 13 11 13 15 14 13 12 11 10 7 5 7 9 8 3 4 2 3 4 5 4 6 10 13 13 13 14 14 13 14 14 14 14 14 14 13 13 12 11 12 11 12 11 10 10 10 10 9 8 8 7 7 6 6 5 4 4 4 4 4 4 4 5 5 5 5 4 3 2 2 2 3 3 2 2 1 2 3 4 4 5 5 6 5 6 6 6 7 7 7 7 9 11 12 12 13
15 15 12 10 11 14 15 13 12 12 9 6 6 8 8 5 1 3 1 5 6 6 5 6 8 10 11 13 14 14 14 14 15 15 15 16 15 14 13 12 12 11 12 12 12 11 10 11 10 10 9 8 8 7 7 8 7 5 4 4 4 4 4 4 5 4 4 3 2 2 3 3 4 3 3 3 2 3 4 4 5 6 6 6 7 6 6 7 7 8 8 9 11 12 13 13 13
17 16 13 9 10 13 16 14 13 13 12 9 7 6 7 5 3 4 3 3 7 8 7 7 7 7 7 9 11 13 14 15 15 16 16 16 16 16 16 16 15 14 14 13 12 12 12 12 11 10 10 9 9 8 9 10 9 7 5 5 5 4 4 4 4 4 3 3 3 4 4 4 3 3 3 4 4 4 5 5 6 6 7 8 8 8 8 9 9 10 11 12 13 14 15 15 15
19 18 15 13 13 13 17 18 16 15 14 11 7 6 6 4 4 5 4 5 7 8 8 8 8 7 6 7 8 8 9 11 12 13 15 16 15 16 16 16 15 14 13 13 13 13 13 13 12 11 11 10 9 9 9 10 10 9 7 6 6 6 5 5 5 4 3 4 4 4 3 3 3 4 5 5 5 6 6 6 7 8 9 10 10 9 10 11 12 13 13 14 15 16 16 16 16
21 20 16 16 14 14 18 20 17 18 14 7 7 9 6 2 3 3 3 5 5 7 8 8 8 8 7 7 7 6 8 9 10 11 12 14 14 13 14 14 14 14 13 13 12 12 12 12 11 10 11 10 10 10 9 8 9 9 9 7 7 7 7 7 6 5 4 4 4 4 3 3 3 4 5 6 6 7 7 8 9 10 11 11 10 10 10 12 13 14 14 15 16 16 16 17 17
20 20 18 17 14 14 19 21 18 18 14 9 12 11 5 2 2 2 4 5 4 4 8 8 8 7 6 6 7 7 8 10 11 11 12 14 14 14 14 13 13 12 11 11 10 10 11 11 11 10 9 9 9 9 8 7 7 8 8 7 7 7 8 7 5 4 4 3 3 4 4 4 4 5 5 6 7 8 9 10 10 11 11 10 10 10 12 13 13 14 14 15 16 17 18 18 18
18 18 17 16 15 16 20 22 20 19 17 15 16 13 9 7 5 4 4 6 5 3 7 8 8 8 6 7 8 7 7 8 9 10 12 14 14 14 12 12 11 10 10 10 10 10 11 10 10 10 9 9 8 8 7 5 5 6 7 7 7 7 8 6 4 4 3 3 3 4 4 5 5 6 7 8 8 9 11 12 12 11 11 11 11 12 14 14 14 14 14 15 16 17 18 19 19
19 16 12 12 14 18 22 23 21 21 19 17 17 14 12 11 9 6 4 5 7 5 6 9 10 9 8 7 9 9 8 7 7 8 10 10 9 10 9 9 9 10 10 10 10 11 11 10 11 11 10 8 7 6 6 5 5 6 7 7 7 7 6 5 4 4 3 2 3 4 5 7 8 9 10 10 11 11 12 14 13 13 13 13 13 14 14 15 14 14 15 16 18 19 20 21 21
22 17 11 13 17 20 24 25 24 22 21 20 19 14 12 13 11 8 5 5 7 7 8 10 11 11 10 9 9 10 10 9 9 9 7 6 5 7 7 7 9 10 9 9 10 11 10 10 11 11 9 8 6 6 6 6 6 7 7 7 7 6 5 4 5 4 3 3 4 5 6 8 9 11 12 13 13 13 14 15 15 16 16 15 14 15 15 15 15 16 17 19 21 21 21 21 22
21 17 16 19 20 23 26 26 25 23 23 23 21 18 15 14 10 9 10 8 7 9 10 10 11 12 12 11 10 10 12 12 11 9 7 8 8 8 8 9 10 10 9 10 11 10 10 10 10 11 10 8 7 7 7 7 7 7 8 8 8 6 5 5 5 4 4 4 4 6 7 8 10 11 12 13 14 14 15 16 17 17 17 16 16 16 16 16 17 18 19 21 21 20 19 18 17
19 16 21 22 23 25 28 28 26 24 24 24 23 21 15 10 10 11 11 11 11 12 12 12 12 12 13 13 12 12 13 14 12 10 10 10 11 11 11 11 10 10 11 12 10 10 10 10 10 10 9 8 9 8 8 8 8 8 8 8 8 7 6 5 5 5 5 5 5 6 8 9 10 11 12 13 14 15 16 16 18 18 18 17 17 18 19 19 20 20 20 20 19 17 16 14 13
18 20 22 26 28 29 30 30 28 27 27 25 24 23 14 8 11 12 12 13 13 14 15 15 13 13 14 14 14 14 14 14 13 13 13 12 12 12 12 12 11 11 11 10 9 9 10 9 10 10 10 10 10 9 9 9 9 8 8 8 8 7 7 7 7 7 6 7 8 8 9 10 11 12 12 13 14 15 15 16 18 19 19 19 19 21 22 22 22 21 21 19 17 15 15 12 12
22 25 25 29 31 31 32 32 30 29 29 26 26 25 18 12 12 12 12 14 14 15 15 15 16 15 14 14 15 15 15 15 15 16 15 13 13 13 12 12 12 12 10 9 9 9 9 9 10 11 11 10 10 10 10 9 8 8 7 7 7 7 7 8 8 7 8 9 9 10 11 11 12 13 13 13 14 15 15 16 17 18 19 20 21 23 24 24 22 21 20 18 15 15 14 13 11
27 29 30 33 33 32 33 33 31 29 29 28 27 24 17 12 12 11 12 14 15 16 16 16 16 16 15 14 15 16 17 17 18 17 16 15 14 13 13 12 12 11 11 9 8 8 8 8 9 9 9 9 10 10 9 8 6 5 5 4 5 6 6 8 9 8 10 11 11 11 12 11 12 13 14 14 15 15 15 16 17 18 19 21 24 26 25 23 21 19 18 16 14 13 13 12 10
31 31 32 34 35 35 35 35 33 33 32 27 26 24 15 9 9 10 11 11 14 16 17 17 17 17 16 15 15 17 18 18 18 17 16 15 14 14 14 13 13 12 11 9 8 8 8 8 8 8 8 8 9 8 7 7 6 4 4 5 5 6 6 8 10 9 10 12 12 13 13 12 13 14 15 15 15 15 15 16 18 19 21 24 27 28 25 21 19 18 17 15 13 12 12 11 9
36 34 34 36 37 36 37 35 32 35 36 29 25 24 19 13 10 10 10 10 11 12 15 16 18 18 17 16 17 17 18 18 16 16 16 16 16 16 15 15 15 13 11 9 8 9 9 8 8 8 7 8 7 6 6 6 5 4 4 5 5 6 7 8 10 10 11 13 13 14 14 14 14 15 16 15 14 14 15 18 19 21 24 27 29 26 22 18 17 17 16 15 13 12 12 11 8
37 35 36 38 39 39 39 36 31 33 36 32 27 24 21 18 14 11 11 10 8 10 13 16 18 19 18 18 18 18 18 16 15 16 16 16 16 16 16 16 15 14 12 11 10 10 9 9 9 8 7 7 7 6 5 5 5 4 4 5 6 8 8 8 9 10 11 13 14 14 14 15 16 16 16 16 15 16 18 19 21 24 27 28 25 20 17 16 15 15 15 14 13 12 12 11 8
34 35 36 38 39 40 38 35 33 34 35 32 28 25 23 21 17 12 10 9 9 10 12 15 17 18 19 18 18 18 16 14 15 17 17 16 17 17 17 17 16 15 13 12 11 10 10 10 9 8 8 8 7 6 6 6 5 4 5 6 7 7 7 7 7 7 9 12 13 13 14 15 15 15 15 16 17 19 20 21 23 24 24 22 17 14 13 13 13 13 13 13 13 13 14 13 9
30 36 37 37 39 38 34 33 31 32 36 32 27 26 25 23 20 15 14 12 9 8 8 10 14 16 17 17 18 17 14 14 18 19 19 19 18 18 18 18 17 15 13 11 11 11 11 11 10 9 9 9 8 7 7 6 5 4 4 4 4 3 3 2 2 3 4 5 6 8 9 9 9 11 12 14 15 16 17 18 18 17 16 14 12 11 11 12 12 12 11 12 12 12 14 13 10
25 34 36 35 37 35 32 32 28 27 33 33 29 28 26 25 23 18 17 16 11 8 7 7 10 14 15 15 16 17 17 19 19 18 18 19 18 18 18 18 17 15 14 13 12 12 11 10 10 9 9 9 8 8 8 7 6 5 4 3 3 3 3 4 5 4 3 3 3 3 3 3 4 5 6 7 8 9 10 11 11 11 11 10 9 9 10 11 11 11 10 11 12 13 13 12 10
22 32 34 30 30 30 30 32 28 24 29 33 30 29 28 26 25 23 20 18 14 11 10 10 12 13 12 13 15 17 18 18 16 14 14 15 15 16 17 17 17 16 16 14 12 11 10 9 9 8 9 9 9 10 10 8 8 7 7 8 9 11 12 12 13 12 12 12 12 11 9 8 6 5 5 5 6 6 7 7 8 9 10 11 10 10 10 11 11 11 11 11 12 13 13 12 10
23 30 32 25 22 23 26 29 28 23 24 31 28 24 28 29 26 26 23 20 20 18 15 15 15 14 14 16 17 18 18 15 12 12 11 10 11 13 15 17 17 16 14 13 11 10 9 8 9 10 11 11 11 12 12 12 12 12 13 14 15 17 17 18 18 18 17 17 16 15 13 12 11 10 9 8 8 8 8 8 9 9 10 10 11 11 11 12 12 12 12 12 12 12 13 12 10
26 28 31 25 17 14 15 20 25 22 23 32 28 15 19 30 31 29 26 24 24 22 21 20 17 17 19 20 20 18 17 16 13 12 11 10 10 13 16 17 17 16 14 13 12 11 11 11 11 12 13 13 14 14 13 13 13 14 15 16 16 16 16 17 17 17 17 17 17 16 15 14 13 12 12 11 10 9 8 8 8 8 9 9 10 11 11 12 13 13 13 13 12 12 12 12 11
28 29 30 24 18 15 13 16 22 22 24 31 31 21 16 24 31 31 29 28 27 25 24 23 20 20 22 21 20 20 19 17 15 13 13 12 12 13 15 16 17 16 16 15 15 14 14 14 14 14 14 15 15 14 12 12 11 12 13 13 13 13 13 14 14 15 16 16 16 16 16 15 14 14 14 13 12 10 9 8 8 8 8 9 10 11 12 12 13 13 13 13 12 12 12 12 12
31 30 28 22 20 17 15 17 18 20 24 25 31 33 22 22 32 30 29 31 29 29 29 27 25 24 25 23 21 21 20 18 17 15 13 12 13 12 12 13 14 16 17 17 17 16 16 16 16 16 16 16 15 14 12 11 11 11 11 11 11 11 11 11 12 12 13 14 15 15 16 16 15 15 15 15 15 14 13 11 10 9 9 10 10 11 12 13 13 14 14 13 13 13 14 13 13
33 30 27 24 21 17 16 16 16 21 22 19 26 32 19 23 38 32 27 32 32 32 31 30 29 26 26 26 24 23 22 20 19 18 14 11 10 10 10 11 13 15 17 18 18 17 17 17 18 17 17 16 16 14 12 11 10 10 10 9 9 9 9 9 9 10 11 12 13 14 15 15 15 16 16 17 18 17 16 15 14 12 11 11 11 12 12 13 13 14 14 14 14 13 14 14 13
36 31 27 25 22 19 14 12 17 21 19 17 25 31 19 19 37 36 28 31 33 33 32 29 29 28 27 26 25 25 24 23 22 20 18 14 11 10 11 13 14 16 17 18 19 18 18 19 19 18 16 16 16 15 13 12 10 9 9 8 7 7 6 6 6 7 8 9 10 11 13 14 16 16 17 18 19 19 19 18 17 16 15 13 12 12 12 12 12 12 12 12 13 12 13 13 12
37 33 29 26 21 19 13 13 20 16 11 18 26 33 26 15 27 38 33 30 29 29 30 28 27 28 28 27 25 25 26 26 25 22 20 18 15 15 15 16 16 17 17 18 20 20 20 20 19 18 16 16 16 15 14 12 10 9 8 7 6 5 5 4 4 4 5 6 7 8 10 13 15 17 18 18 19 20 20 20 19 18 17 15 14 13 12 12 12 12 11 11 11 11 11 11 11
37 31 30 25 14 10 8 11 18 8 5 19 26 32 31 18 24 36 33 30 29 29 29 27 24 23 23 22 22 22 23 25 26 25 23 21 20 19 19 19 18 18 18 19 20 21 21 21 20 20 18 15 15 15 14 13 10 7 5 5 4 4 3 3 2 1 2 3 4 6 9 11 14 16 18 18 19 20 21 21 20 19 17 16 14 13 12 12 12 11 11 11 11 11 10 10 10
34 29 29 21 7 4 4 5 8 6 9 19 23 26 27 27 34 37 33 32 30 29 30 27 24 23 21 19 17 18 21 23 26 27 26 25 23 21 20 20 19 19 19 19 19 20 21 21 21 20 19 16 15 15 15 13 11 8 6 5 4 3 2 1 1 1 2 3 4 6 8 10 13 15 17 18 18 19 20 21 21 20 18 16 14 14 13 13 13 12 11 10 10 10 10 10 11
33 30 29 19 6 3 4 2 0 3 12 19 21 19 18 26 34 31 29 28 24 24 27 27 26 25 23 21 18 18 18 20 23 25 27 27 26 24 21 20 20 20 19 19 19 19 19 20 20 21 20 19 17 16 16 15 13 12 10 8 8 7 4 3 3 4 4 6 7 8 9 10 12 14 16 17 18 18 19 21 22 21 19 17 15 14 14 13 13 12 11 10 10 10 10 11 11
37 35 33 28 19 10 5 4 3 5 8 12 15 12 9 17 23 21 20 20 19 22 26 29 30 28 26 24 22 22 20 20 21 22 25 27 28 27 23 22 21 19 19 19 19 18 17 17 18 19 20 20 18 17 18 17 16 16 14 12 12 11 10 8 7 7 8 8 9 10 11 12 12 13 15 17 18 18 18 20 22 22 20 18 16 15 14 13 13 12 12 11 11 10 10 11 12
37 37 35 34 32 24 12 7 10 10 5 5 12 11 12 21 25 22 19 18 19 22 25 30 32 33 32 25 22 23 21 20 20 22 23 25 27 29 28 25 22 20 19 20 19 18 17 15 15 16 18 20 20 20 19 19 20 19 18 16 15 14 14 12 11 11 12 12 12 13 13 14 14 14 14 16 17 18 18 20 22 22 21 18 16 15 14 14 13 13 13 13 12 11 11 12 12
31 33 37 35 33 31 21 11 11 10 4 4 11 11 17 24 24 23 22 20 19 20 25 28 28 32 34 28 23 22 20 20 21 21 21 22 24 28 29 28 25 23 21 19 19 18 16 14 13 14 16 19 21 21 21 21 22 22 21 20 19 18 17 16 14 15 15 15 15 15 15 16 15 15 15 16 17 18 19 19 21 22 21 18 16 15 14 13 13 13 14 14 14 13 12 13 14
34 32 36 31 25 28 25 12 4 4 3 5 12 16 19 19 15 17 21 22 21 20 22 25 27 29 29 27 25 22 21 22 21 20 19 19 22 25 27 28 26 24 22 20 18 17 16 15 14 14 15 16 17 19 21 23 23 23 24 23 22 22 20 19 19 19 19 19 18 17 17 17 17 16 16 16 17 18 19 19 20 21 20 18 16 15 14 13 12 13 14 14 14 14 14 14 15
40 39 36 27 19 21 23 13 3 3 2 2 9 16 19 21 19 17 17 21 23 21 20 22 24 24 21 21 24 23 23 23 21 20 20 21 22 22 24 26 26 25 24 22 20 19 19 17 16 17 18 19 19 21 23 25 25 25 26 25 24 25 25 23 23 23 23 22 20 19 19 18 18 17 16 16 17 18 18 18 19 20 20 17 15 14 13 13 13 13 14 14 14 14 14 15 16
37 37 34 30 25 22 24 22 12 7 4 2 5 8 13 22 24 19 15 18 21 22 22 19 16 15 15 17 22 24 24 22 19 19 19 21 22 21 20 21 22 22 21 20 20 20 19 18 18 19 21 22 23 23 25 26 26 26 27 27 26 27 28 27 27 27 27 25 23 22 20 19 19 19 18 18 17 17 18 18 18 20 19 16 14 14 13 13 13 14 14 14 15 15 15 15 16
37 36 32 30 29 23 21 23 23 15 6 4 4 3 11 19 19 18 18 17 17 19 20 15 10 9 12 16 20 23 21 17 14 14 14 17 20 20 19 19 19 19 20 20 20 19 18 18 19 20 22 24 24 25 26 27 28 28 29 29 27 27 29 27 26 28 30 29 27 23 22 22 22 21 20 20 18 17 17 17 18 20 18 16 14 13 13 13 13 14 14 14 15 15 16 16 16
43 41 37 34 32 26 16 12 21 22 12 7 6 4 11 17 16 16 17 16 16 16 14 11 10 11 14 15 19 21 17 14 12 11 11 13 17 19 19 19 20 20 22 22 21 20 20 20 20 19 20 22 22 24 25 27 29 31 32 32 31 29 30 29 26 26 29 31 29 26 25 25 25 23 21 20 19 17 16 17 19 20 19 16 15 13 12 13 13 13 13 14 15 16 16 16 16
Wind_Direction
44 51 63 82 87 89 93 92 91 85 85 86 87 94 103 109 111 110 110 115 115 110 108 109 114 119 124 120 118 125 128 133 136 135 133 128 124 123 125 128 126 124 125 127 127 126 127 129 129 129 130 131 131 133 134 132 131 133 136 135 132 131 131 131 130 127 126 128 129 130 129 126 124 123 123 120 115 111 107 101 93 86 79 67 56 54 56 58 55 46 37 32 30 27 24 23 23
46 54 66 86 94 98 98 93 98 100 95 91 91 97 108 116 118 115 105 107 112 112 117 119 120 124 125 121 119 122 124 133 140 136 131 127 126 125 126 129 126 123 125 124 123 126 128 129 128 130 131 132 132 134 135 135 134 134 135 136 137 139 138 137 136 133 130 132 134 133 130 127 125 124 122 118 112 106 100 94 89 85 79 70 63 63 64 62 54 43 32 24 23 23 21 20 18
52 70 86 96 99 101 96 99 111 108 102 101 101 97 104 116 124 125 111 110 113 114 123 125 125 130 131 128 122 129 130 127 138 142 132 127 126 126 127 130 127 123 125 122 120 127 131 129 126 127 129 130 132 133 134 134 133 132 132 136 141 142 141 141 138 134 132 130 130 129 128 126 125 123 118 112 105 99 94 90 87 84 79 74 69 66 62 58 51 40 30 19 16 17 19 19 14
66 89 105 108 103 103 104 117 123 107 107 116 115 106 107 110 116 125 122 123 120 117 127 128 130 138 143 134 120 135 132 124 133 144 134 128 127 127 128 128 126 124 126 124 122 127 131 128 124 125 127 125 126 128 129 128 128 129 133 138 142 143 141 140 138 134 130 127 124 124 123 121 119 116 111 105 100 97 94 91 88 83 79 73 66 57 50 47 42 33 25 15 8 8 13 16 12
90 108 114 116 113 114 114 119 120 98 106 119 121 120 113 103 106 119 127 131 128 125 133 135 131 135 142 123 122 129 125 125 133 142 137 128 127 130 129 126 125 126 126 126 125 126 129 128 123 125 126 122 120 121 123 124 127 130 134 139 139 139 138 136 134 132 129 124 121 118 117 115 113 111 107 103 102 102 99 96 91 85 77 69 60 48 41 38 34 25 15 7 360 358 5 13 10
110 121 123 121 116 117 114 110 109 97 99 100 111 130 124 101 95 100 112 128 139 138 146 154 137 125 130 125 123 122 120 126 135 140 138 129 127 132 131 127 126 128 127 126 127 127 132 131 124 124 125 123 120 118 120 123 126 129 131 132 132 130 130 131 130 127 123 120 118 116 115 114 113 112 109 108 109 109 108 104 98 89 78 70 58 46 39 34 30 18 4 357 353 352 3 15 13
120 127 128 126 119 120 114 101 97 99 106 82 80 119 130 106 93 80 81 123 157 159 167 177 182 137 130 124 121 119 121 128 135 136 136 129 127 132 133 131 130 131 129 126 126 128 132 132 128 125 125 124 121 118 118 120 122 124 125 125 124 124 126 127 126 122 118 117 116 117 118 118 118 117 116 115 117 118 115 111 103 91 80 69 57 45 37 31 26 14 1 353 350 351 0 14 16
127 131 128 132 132 130 122 107 99 94 106 96 66 91 107 93 84 49 45 124 168 166 178 183 180 150 130 125 124 122 126 132 137 135 133 131 129 133 135 135 135 137 134 129 128 129 132 133 131 127 124 123 119 116 115 115 116 119 121 124 122 122 125 123 121 117 115 116 117 120 122 122 121 120 119 119 120 119 116 110 99 84 70 55 45 35 29 29 29 22 8 356 353 355 0 11 15
134 135 132 139 141 137 131 121 116 102 94 91 73 78 77 73 64 14 46 139 165 166 181 172 159 154 131 129 128 125 129 135 139 135 133 133 132 135 136 137 139 140 138 134 133 132 133 135 133 128 125 122 118 113 110 110 112 116 119 121 121 121 122 119 115 113 114 118 121 124 123 121 120 118 115 116 115 110 104 88 67 51 39 32 26 23 27 33 40 40 29 15 8 6 9 15 16
138 140 143 144 146 143 140 136 132 121 104 91 76 75 69 64 60 41 112 135 142 153 164 152 152 158 135 132 131 128 133 136 140 137 134 135 134 135 135 138 142 144 141 138 137 135 135 136 134 129 127 124 120 114 110 110 111 113 115 116 117 118 117 114 112 113 117 122 124 124 120 117 113 109 105 100 94 83 68 51 38 27 22 18 18 24 31 38 46 49 45 38 30 21 18 22 20
149 156 158 151 153 153 149 149 145 138 131 118 97 82 73 68 69 85 116 130 132 140 146 143 157 165 143 137 132 132 136 137 141 140 137 137 137 136 135 139 145 149 145 139 138 136 135 136 135 132 130 126 120 115 113 113 113 114 115 116 116 117 116 114 115 117 120 122 121 119 114 110 103 96 88 76 66 57 45 36 28 24 23 21 24 32 37 41 47 49 46 40 33 27 25 21 13
156 153 160 159 163 166 160 155 151 149 151 141 111 90 79 83 80 87 99 117 129 143 148 148 169 167 150 141 136 138 141 141 144 144 141 140 139 140 139 142 147 151 147 140 136 136 137 137 137 135 132 127 119 116 116 118 120 120 121 120 120 119 118 117 118 119 120 119 118 114 109 103 97 89 78 64 52 43 36 32 30 32 33 35 40 46 46 45 44 43 37 28 24 23 21 16 3
152 149 161 168 172 175 167 160 155 157 162 156 113 95 87 92 89 88 95 104 116 148 164 168 176 167 157 146 141 143 145 146 148 149 146 143 143 144 145 145 146 148 145 141 138 139 140 139 140 138 134 129 122 119 121 126 128 128 127 126 123 121 119 119 121 122 121 121 119 115 110 106 101 94 81 64 49 40 33 34 39 38 38 43 49 51 51 47 42 37 31 14 7 357 353 1 351
155 154 170 181 182 180 174 169 165 167 166 159 126 105 97 90 89 86 90 100 107 132 171 174 173 173 170 158 150 149 150 150 151 153 151 149 149 150 150 150 149 148 144 142 143 145 145 143 142 141 138 131 127 127 128 130 131 130 129 127 126 124 124 126 128 130 129 130 131 127 125 123 116 106 92 73 53 39 34 45 51 45 53 56 49 44 44 45 40 34 28 15 2 343 328 317 302
151 147 178 192 181 180 186 185 175 177 168 157 141 120 111 103 98 83 77 88 110 122 144 154 166 181 193 190 164 154 153 152 154 156 157 157 158 157 155 154 154 151 148 147 150 153 150 145 144 142 139 134 132 132 132 133 132 131 130 130 131 130 132 135 138 140 144 149 150 147 142 137 129 118 102 90 62 25 31 51 57 48 56 57 47 36 33 34 34 32 29 21 10 359 337 313 309
157 150 174 187 180 184 191 192 187 184 167 156 150 139 135 123 114 101 89 80 117 126 128 139 161 182 202 216 182 160 157 155 157 160 164 166 165 164 162 162 161 158 155 155 157 156 153 148 146 142 137 136 135 134 134 137 137 135 137 139 139 140 142 146 151 153 160 164 162 157 146 138 131 115 106 117 291 341 20 41 52 38 35 36 32 30 26 21 25 27 23 18 8 2 351 335 341
176 173 174 187 193 196 192 194 194 181 161 156 159 158 164 134 125 134 109 108 138 130 131 141 156 169 176 195 185 168 166 162 162 166 169 171 171 171 170 169 167 165 163 163 163 159 155 154 152 149 143 138 138 138 136 140 144 142 145 150 150 152 157 159 164 168 166 163 165 162 143 136 129 73 270 252 261 304 15 28 36 20 13 19 23 25 21 14 16 17 13 12 8 5 2 355 356
190 189 181 193 208 212 210 215 198 182 172 155 160 168 186 339 95 155 121 129 159 138 141 151 150 155 160 180 186 175 174 171 168 171 173 174 174 175 175 174 172 171 169 167 168 164 159 160 163 158 149 144 146 148 141 140 150 152 154 158 159 162 168 171 172 174 171 165 166 164 153 169 224 241 256 259 267 328 351 4 22 18 11 20 21 17 13 12 14 14 11 12 14 12 9 5 3
200 198 195 204 215 223 225 227 210 206 214 156 161 177 191 335 21 141 132 137 170 148 145 154 152 154 156 170 180 175 174 174 171 171 173 173 173 177 179 178 177 174 173 171 172 171 166 167 169 162 153 150 153 157 154 146 150 158 163 166 176 177 173 182 185 182 179 173 172 172 176 212 247 256 279 316 359 360 351 350 2 4 2 9 8 3 5 8 12 14 12 9 8 7 4 1 360
214 209 210 210 216 223 225 229 229 230 233 187 178 185 192 270 2 77 149 152 169 155 144 152 152 147 145 158 170 168 168 169 169 168 168 169 170 176 181 184 183 178 175 177 180 179 176 177 176 167 159 156 158 160 160 159 155 158 166 171 183 186 181 190 195 192 187 183 181 190 210 235 258 286 318 332 360 5 356 350 348 342 340 346 345 344 347 351 357 2 359 351 346 347 349 348 347
225 222 217 211 221 227 228 232 230 228 230 220 199 189 194 215 4 34 137 171 172 163 147 143 147 141 134 147 160 161 163 165 167 167 167 170 169 170 175 182 185 184 182 184 187 186 184 184 182 173 166 166 165 165 171 172 166 157 160 170 177 184 186 192 202 201 198 206 216 232 248 255 266 300 321 316 339 357 355 350 338 328 327 328 328 326 325 327 333 340 339 333 329 329 330 331 331
230 233 233 227 236 236 233 233 224 222 223 221 218 194 189 192 132 77 72 145 173 168 152 137 136 133 119 131 151 160 163 164 167 167 165 167 169 170 173 180 184 183 183 184 186 188 188 188 184 176 174 177 173 172 182 184 179 172 167 169 176 185 191 193 201 206 210 227 243 248 256 264 276 295 304 304 317 339 349 346 334 325 322 320 320 319 317 319 323 323 322 319 318 317 317 317 318
236 237 242 246 251 246 236 230 222 217 215 217 220 196 188 182 135 115 92 117 160 168 158 143 133 134 135 133 139 147 155 163 168 168 165 163 165 171 174 178 180 178 177 180 183 188 190 190 186 178 177 181 179 177 184 187 187 188 185 178 185 194 197 201 198 199 207 223 240 252 262 274 287 297 299 296 304 323 335 333 326 320 317 316 317 319 321 322 321 317 313 311 310 310 310 311 312
237 237 247 258 255 245 234 226 219 216 216 220 212 199 193 182 154 160 146 139 164 180 170 158 145 144 152 149 142 138 142 153 165 171 170 166 165 172 177 177 179 177 176 179 180 182 188 191 189 185 185 185 179 176 182 187 187 193 192 183 190 199 202 209 207 199 201 213 234 255 273 285 290 295 297 295 298 309 316 315 314 313 313 314 316 319 320 320 318 314 311 309 308 308 308 308 309
234 243 257 263 247 230 226 222 217 214 216 220 215 210 196 176 198 201 177 163 171 208 192 178 166 160 155 155 161 158 151 154 166 173 173 174 175 178 180 181 182 178 175 178 178 179 185 189 190 190 194 194 187 182 184 185 186 193 193 189 195 202 207 213 215 209 210 217 239 266 282 290 291 293 294 293 295 299 301 303 306 309 311 310 310 312 315 317 316 312 310 309 309 308 307 307 306
238 253 261 254 237 220 216 217 215 210 212 217 214 214 206 196 199 199 201 195 187 208 211 198 182 174 165 166 173 175 171 164 163 171 176 181 183 181 181 181 177 175 178 183 181 184 191 190 190 194 198 203 198 190 191 191 193 196 198 203 203 206 213 215 218 225 229 231 251 274 278 281 292 297 294 289 288 290 292 297 301 303 306 305 305 309 313 316 314 311 310 310 311 310 309 306 305
242 256 255 234 226 216 211 214 213 209 213 219 216 214 209 207 209 199 196 202 196 202 214 205 193 184 174 171 178 181 182 172 165 177 182 184 184 181 181 178 174 180 186 187 187 194 201 199 198 202 204 206 201 196 202 204 207 210 209 212 212 216 224 225 232 243 251 257 264 271 268 271 285 294 292 287 284 284 288 293 296 297 299 302 304 309 312 314 312 310 309 310 312 310 305 301 301
243 253 234 211 214 210 208 211 211 210 213 217 218 219 215 215 214 204 215 228 211 209 213 209 199 192 185 180 184 184 181 178 181 185 175 158 163 179 178 172 183 195 193 190 196 201 205 207 208 211 211 212 210 209 218 218 218 226 225 222 223 230 239 245 250 258 273 281 270 263 264 268 279 286 287 284 282 283 287 290 291 293 296 301 304 307 309 310 310 308 307 308 310 309 304 301 301
246 243 210 201 208 204 204 209 211 211 213 213 213 216 222 223 211 198 215 233 233 219 211 211 207 199 194 188 189 189 182 180 184 181 169 160 160 170 173 174 190 200 198 199 204 205 206 209 213 215 214 216 218 219 226 230 231 236 235 232 234 240 248 256 264 273 278 276 264 257 261 267 275 280 280 279 278 280 284 287 289 291 296 299 301 305 308 308 308 307 306 309 312 313 312 312 313
241 218 198 196 197 199 201 206 209 211 216 217 209 210 221 223 208 205 215 225 232 226 209 204 204 202 200 194 192 194 187 181 180 178 180 178 168 167 173 179 187 194 199 202 200 204 209 211 214 218 217 215 219 221 227 234 238 240 237 237 242 246 249 258 270 275 271 264 260 257 256 262 266 267 267 268 270 276 282 286 288 290 294 295 297 304 308 308 308 306 307 312 315 317 319 321 325
214 191 192 196 191 195 201 204 207 209 214 218 211 215 233 235 211 211 217 222 230 228 212 201 198 201 203 198 194 196 192 183 179 184 189 184 176 175 179 183 188 196 202 198 190 199 210 208 208 215 216 214 216 220 225 232 237 240 240 243 248 247 246 253 265 274 274 270 267 263 264 267 268 267 269 272 277 282 286 288 288 289 290 289 294 304 308 308 307 306 309 314 315 317 319 319 321
193 181 186 196 193 194 200 204 209 209 210 213 211 217 237 243 219 212 216 221 225 225 215 203 197 200 204 202 199 197 195 190 187 190 192 188 184 183 184 187 192 199 202 195 193 200 205 201 200 207 214 216 215 216 222 231 238 242 245 252 254 249 246 250 260 268 271 274 272 270 272 276 278 278 278 281 286 287 287 287 287 288 287 284 292 304 307 306 305 306 310 313 313 316 320 315 311
188 184 186 195 197 194 198 204 210 212 211 210 208 213 232 239 219 213 217 217 218 217 213 206 200 200 203 206 206 202 197 196 196 197 197 194 192 190 190 191 194 197 198 196 195 195 198 199 200 205 213 218 216 216 224 234 237 237 241 245 250 254 257 263 271 273 271 278 279 274 273 274 277 277 272 274 279 282 283 284 285 287 284 284 293 302 306 304 303 305 308 310 311 313 317 314 307
185 187 190 196 199 197 198 202 206 211 214 215 213 213 225 239 225 218 218 215 213 213 208 205 202 201 203 207 213 211 206 205 205 206 205 202 198 196 196 193 193 194 196 197 191 188 193 197 202 208 215 221 221 222 226 229 228 230 233 229 244 262 263 265 273 273 268 272 275 273 269 268 272 273 270 271 275 278 278 282 287 286 282 286 295 302 304 303 303 303 302 303 306 307 310 313 310
184 188 194 197 200 201 201 201 201 205 212 218 219 220 227 238 240 222 215 215 214 213 209 205 204 203 204 208 214 216 215 215 214 212 211 208 203 200 199 196 195 194 195 200 197 196 198 199 205 213 221 226 223 220 219 223 226 229 230 230 246 259 250 248 257 260 260 264 268 270 270 270 273 274 272 272 273 274 275 279 283 283 284 289 296 301 302 302 303 302 300 298 300 299 301 310 312
189 193 199 199 201 204 205 203 200 201 208 214 219 226 233 240 245 232 221 220 212 208 208 206 205 205 206 210 215 219 219 218 215 214 213 211 209 206 202 199 198 197 197 201 203 203 203 204 208 212 218 219 212 212 214 218 218 209 214 229 238 243 243 244 248 251 256 262 266 269 272 274 273 272 272 273 274 276 277 280 283 284 287 291 295 299 298 298 301 301 299 299 299 297 296 303 306
198 199 202 204 205 206 207 205 203 205 209 215 220 226 235 242 249 247 233 225 220 216 211 208 204 203 205 208 213 217 217 216 216 215 214 212 213 212 207 201 198 199 199 200 200 201 202 207 208 206 206 202 200 204 203 203 205 206 214 225 231 236 243 251 256 256 257 261 264 264 265 267 269 273 277 278 278 278 279 282 285 286 287 290 294 295 293 295 298 298 297 298 301 301 297 300 303
203 204 205 207 209 209 208 207 207 210 214 219 223 227 233 239 244 245 236 236 251 257 242 222 207 203 203 204 209 211 208 210 215 216 215 213 212 213 211 205 200 196 193 192 193 197 202 207 207 204 198 190 189 189 183 182 184 190 202 209 219 234 247 265 288 280 267 266 266 263 264 269 277 282 282 281 280 280 281 282 282 283 286 292 295 294 293 295 296 297 296 296 300 300 296 300 305
202 207 208 211 214 214 213 214 214 216 218 221 226 229 233 236 237 238 240 248 267 281 267 241 217 210 204 200 202 204 203 210 216 218 218 216 211 211 212 208 200 189 184 186 189 197 202 204 204 204 194 182 178 170 161 161 160 161 165 158 141 118 106 94 86 86 82 67 58 45 24 2 330 308 298 296 295 290 286 284 285 288 296 303 305 302 299 296 294 295 296 295 297 296 295 300 302
200 204 207 214 221 222 223 222 222 224 222 222 226 232 235 236 236 234 237 246 247 249 247 230 219 214 208 207 205 205 209 212 214 213 214 214 208 206 207 202 194 187 183 182 184 190 193 193 193 192 186 177 166 154 147 141 134 127 120 110 102 99 97 93 90 86 81 74 67 62 55 48 37 23 8 353 337 324 315 312 312 312 312 313 312 307 301 299 298 297 297 295 295 295 296 300 299
202 204 207 214 220 224 231 229 227 229 226 225 227 234 238 237 239 238 235 238 236 235 233 223 215 207 205 212 211 209 213 211 204 197 195 199 195 193 194 194 193 186 179 173 172 171 171 173 174 174 174 168 154 145 136 127 119 112 106 102 98 96 93 90 86 81 76 70 64 60 56 51 46 40 31 19 6 354 341 332 324 317 311 307 302 300 302 304 303 303 305 305 304 302 300 302 300
208 208 212 216 218 222 228 227 223 218 221 227 224 228 243 239 241 244 239 237 237 234 232 226 216 207 205 206 206 207 207 201 195 190 188 187 182 182 188 194 192 179 167 163 160 158 157 159 162 165 165 159 151 147 140 131 123 116 110 105 100 96 92 87 82 76 71 66 60 55 51 48 46 42 36 29 21 9 354 336 324 312 303 298 298 302 305 305 304 305 309 311 313 312 306 306 305
215 214 215 219 224 226 225 220 213 208 220 232 227 224 241 242 243 246 241 239 241 239 238 233 221 214 213 207 200 203 204 198 193 191 192 188 183 186 192 194 187 172 164 161 158 156 155 155 157 161 161 158 157 156 153 146 139 130 121 114 106 99 93 87 81 75 69 63 57 50 46 44 43 40 35 30 25 18 8 353 340 329 318 314 314 314 313 310 308 309 312 314 315 314 310 310 312
220 218 218 223 228 230 233 228 220 223 230 233 228 227 236 249 248 248 243 240 241 241 242 241 231 223 223 217 204 201 203 203 202 200 196 190 186 190 193 193 186 176 169 163 159 158 157 157 158 162 163 161 162 163 162 158 153 145 136 126 114 103 95 88 82 75 67 59 53 46 41 38 37 36 31 28 25 20 16 8 358 347 338 334 331 327 323 320 318 318 320 319 316 313 311 313 314
222 222 224 229 234 239 242 239 235 235 229 217 220 223 228 250 248 248 246 240 241 244 245 247 243 235 231 227 216 208 205 206 209 210 207 200 192 188 187 190 190 186 177 166 164 164 165 164 163 166 166 163 163 164 162 160 159 156 149 137 122 110 101 91 82 74 65 56 50 44 38 34 30 27 25 24 23 19 15 11 6 359 353 347 341 336 330 326 325 323 322 317 313 311 310 311 312
224 226 230 233 240 246 250 254 239 228 219 214 223 222 218 246 247 243 240 238 243 249 251 253 252 247 243 238 228 219 214 212 212 212 213 208 200 192 189 191 195 196 186 174 174 175 174 173 171 172 170 166 166 166 164 161 158 156 152 149 137 123 112 98 85 74 63 53 46 41 33 29 24 18 15 16 17 16 12 8 6 2 358 353 347 341 335 329 326 323 318 313 310 311 310 310 309
227 229 232 234 243 247 248 241 227 216 215 230 238 232 224 239 251 245 243 247 254 257 256 256 256 252 247 243 237 227 222 220 216 214 214 210 204 201 199 197 199 202 196 186 185 185 183 182 179 179 177 174 173 172 173 170 163 156 148 146 142 133 127 116 99 79 62 47 39 32 25 22 19 15 10 7 9 10 8 5 2 360 356 354 350 344 338 332 326 323 320 317 315 316 314 311 309
228 231 231 232 237 236 225 210 210 201 225 240 246 237 223 223 249 253 259 266 268 266 263 260 259 259 252 243 239 233 229 227 222 218 215 210 207 206 205 204 202 205 205 198 195 194 192 191 188 188 189 188 185 185 187 185 181 177 167 158 146 129 124 124 120 87 41 18 14 12 11 11 11 11 8 4 1 2 3 1 357 354 352 351 350 346 341 336 332 329 327 325 321 319 315 313 312
226 226 225 224 208 189 194 179 198 204 224 239 244 232 220 229 248 259 266 269 270 268 265 261 259 265 264 252 245 241 235 232 229 223 218 215 214 212 209 209 209 210 211 208 206 205 202 201 199 198 202 203 201 199 200 202 205 208 212 212 197 174 150 154 249 270 298 317 333 342 352 358 0 3 3 360 356 355 356 356 353 350 349 349 348 347 345 341 336 332 328 325 320 318 316 314 314
221 220 218 213 178 152 217 223 359 226 231 241 240 228 223 235 250 262 264 266 270 265 264 264 262 266 271 265 257 254 247 242 238 230 223 221 220 220 216 213 216 218 217 215 214 214 212 212 211 211 212 213 214 215 215 219 223 224 228 231 226 218 213 230 265 274 282 296 309 319 329 341 347 351 353 353 351 348 349 351 349 347 345 347 347 347 345 341 335 329 324 319 315 315 314 312 311
225 227 228 224 216 207 210 201 180 202 227 231 216 206 213 233 252 266 262 264 265 260 264 266 262 262 267 268 259 254 251 245 245 239 230 226 223 224 223 221 222 224 224 222 220 219 219 219 221 223 223 223 225 227 228 230 231 231 233 235 233 230 226 232 251 262 268 280 293 302 313 322 329 336 341 343 343 341 343 346 346 345 343 344 345 344 342 337 332 326 320 316 313 312 309 305 303
229 231 230 229 227 227 230 227 220 215 212 188 186 196 231 246 259 262 256 262 259 257 261 261 259 258 260 262 252 247 246 240 242 242 236 231 227 225 226 226 226 226 227 226 223 222 221 222 225 229 231 231 232 234 236 236 235 235 237 237 237 236 237 242 249 255 259 267 279 289 299 308 315 323 329 333 335 335 337 341 343 341 339 339 340 340 337 334 329 323 318 315 312 311 307 300 297
227 227 228 230 233 234 235 236 235 227 232 216 199 215 243 251 262 259 252 257 249 244 250 251 255 256 257 258 246 239 238 230 229 233 234 235 232 229 228 228 229 229 229 228 226 224 222 223 226 230 234 234 234 237 240 241 239 240 241 239 240 243 245 248 249 252 257 263 270 278 288 300 308 314 318 322 327 328 330 335 338 337 334 333 334 334 333 330 326 320 316 314 312 311 307 300 296
227 228 231 231 231 235 233 228 224 211 234 233 210 222 234 236 253 261 255 251 237 231 239 244 249 253 256 254 243 232 226 223 225 225 228 233 234 234 231 231 232 233 234 234 232 230 226 225 227 231 236 236 236 238 240 242 243 244 244 242 244 247 249 251 251 254 259 263 268 272 280 291 298 304 310 313 317 321 323 326 331 332 327 325 328 329 328 326 324 320 316 314 312 310 307 300 296
228 233 236 230 217 219 220 215 193 184 229 255 213 221 227 226 240 260 259 246 235 231 232 237 245 246 244 239 233 224 215 218 221 217 217 222 227 232 232 233 234 235 237 237 236 236 233 231 232 235 240 242 241 241 242 242 243 245 246 247 250 251 252 254 255 257 261 263 266 268 273 282 290 295 300 304 307 310 314 318 323 325 321 318 321 322 323 325 326 324 319 315 313 309 306 302 299
223 229 232 231 226 221 217 217 215 199 204 235 220 224 225 229 240 252 253 241 237 237 233 234 244 246 243 236 224 213 207 211 213 210 214 221 224 227 229 231 233 233 234 233 232 235 234 233 237 240 243 245 246 247 244 243 244 246 248 250 251 250 251 255 256 258 261 262 262 262 267 275 282 287 292 295 297 301 306 311 316 319 315 311 313 316 321 328 331 329 324 320 316 312 309 306 303
216 220 220 220 222 222 222 225 220 210 197 178 186 230 226 227 236 244 248 244 238 236 230 233 252 262 263 247 219 205 202 207 211 210 217 222 224 227 226 225 227 228 230 230 231 233 232 234 238 241 245 248 252 253 249 246 245 246 249 251 251 248 247 251 257 259 259 260 259 257 260 267 275 281 285 289 291 294 300 306 312 314 310 305 309 316 324 334 336 332 328 325 320 316 312 309 306
218 220 220 219 219 218 217 226 219 216 218 201 191 219 221 225 236 243 246 240 232 233 229 232 241 249 262 245 209 198 200 203 205 206 212 218 219 222 224 222 223 224 227 229 231 230 228 229 232 236 242 246 251 255 255 254 250 247 248 250 249 247 246 250 258 262 260 258 255 253 255 262 275 282 281 283 287 290 298 305 309 309 305 303 308 317 329 336 336 333 331 327 322 317 313 309 307